Content
SEND FEEDBACK

Daily
Averages
Monthly
Summary
United Kingdom

LONDON, ENGLAND


Home > Europe > United Kingdom > England
Elevation: 61 meters     Latitude: 51 09N     Longitude: 000 11W

WEATHER
 
SELECT A DAY
Number of Records: 297,191;   Date Range: 7/1/96 - 10/21/14
 
SHARE

PRINT THIS DATA

[ ← Previous Day ]
WEATHER ALMANAC - 8 MARCH, 2013
[ Next Day → ]
[ °F ]   °C
Weather ElementAverageHighLow
Temperature9.2 °C10 °C (11:20 am)9 °C (12:50 am)
Dewpoint8.6 °C9 °C (12:50 am)8 °C (1:50 am)
Humidity95.3 %100 % (12:50 am)93 % (1:50 am)
Barometer997.3 hPa1000 hPa (7:50 pm)995.3 hPa (12:50 am)
Wind Speed7.9 km/h13 km/h (8:50 am)
Wind Gust31.5 km/h (2:20 pm)
Weather ElementAverage
Visibility3.1 km
Wind DirectionESE (106.8 °)

Weather ElementTotal
Precipitation---
Heating Degree Days8.8 (Base 18.3)
Averaged from 47 records on 8 March, 2013
WEATHER CONDITIONS BREAKOUT
WIND DIRECTION BREAKOUT
WEATHER BY HOUR - 8 MARCH, 2013
[ °F ]   °C
Local TimeTemperatureDewpointHumidityBarometerVisibilityWind DirectionWind SpeedGust SpeedPrecipitationEventsConditions
12:50 AM9 °C9 °C100 %995.3 hPa2.3 kmENE (70°)7.4 km/hMostly Cloudy
1:20 AM9 °C9 °C100 %995.3 hPa1.8 kmENE (70°)7.4 km/hMostly Cloudy
1:50 AM9 °C8 °C93 %995.3 hPa1 kmENE (70°)7.4 km/hFogFog
2:20 AM9 °C8 °C93 %995.3 hPa0.3 kmENE (70°)7.4 km/hFogFog
2:50 AM9 °C8 °C93 %995.3 hPa0.3 kmENE (70°)7.4 km/hFogFog
3:20 AM9 °C8 °C93 %995.3 hPa0.2 kmENE (70°)7.4 km/hFogFog
3:50 AM9 °C8 °C93 %995.3 hPa0.2 kmENE (60°)9.3 km/hFogFog
4:20 AM9 °C8 °C93 %995.3 hPa0.2 kmENE (60°)9.3 km/hFogFog
4:50 AM9 °C8 °C93 %995.3 hPa0.2 kmENE (70°)7.4 km/hFogFog
5:20 AM9 °C8 °C93 %995.3 hPa0.2 kmEast (80°)9.3 km/hFogFog
5:50 AM9 °C8 °C93 %995.3 hPa0.2 kmENE (70°)9.3 km/hFogFog
6:20 AM9 °C8 °C93 %995.3 hPa0.2 kmEast (80°)7.4 km/hFogFog
6:50 AM9 °C8 °C93 %995.3 hPa0.2 kmEast (80°)9.3 km/hFogFog
7:20 AM9 °C8 °C93 %996.3 hPa0.3 kmEast (80°)9.3 km/hFogFog
7:50 AM9 °C9 °C100 %996.3 hPa0.6 kmENE (70°)9.3 km/hFogLight Drizzle
8:20 AM9 °C9 °C100 %996.3 hPa1.3 kmNE (50°)9.3 km/hLight Drizzle
8:50 AM9 °C9 °C100 %996.3 hPa1.8 kmENE (70°)13 km/hRainLight Rain
9:20 AM9 °C9 °C100 %996.3 hPa1.9 kmENE (60°)13 km/hRainLight Rain
9:50 AM9 °C9 °C100 %996.3 hPa2.3 kmENE (60°)13 km/hDrizzle
10:20 AM9 °C9 °C100 %996.3 hPa2.6 kmENE (70°)13 km/hDrizzle
10:50 AM9 °C9 °C100 %997 hPa1.9 kmENE (60°)9.3 km/hRainLight Rain
11:20 AM10 °C9 °C94 %997 hPa1.9 kmENE (60°)7.4 km/hRainLight Rain
11:50 AM10 °C9 °C94 %997 hPa2.3 kmNNE (30°)7.4 km/hRainLight Rain
12:20 PM10 °C9 °C94 %997 hPa4 kmNNE (30°)9.3 km/hRainLight Rain
12:50 PM10 °C9 °C94 %997 hPa3.5 kmVariable5.6 km/hRainLight Rain
1:20 PM10 °C9 °C94 %997 hPa3.5 kmVariable9.3 km/hRainLight Rain
1:50 PM10 °C9 °C94 %997 hPa4 kmNNW (330°)7.4 km/hRainLight Rain
2:20 PM10 °C9 °C94 %998 hPa5 kmVariable11.1 km/h31.5 km/hRainRain
2:50 PM9 °C8 °C93 %998 hPa6.9 kmNNW (330°)11.1 km/hRainRain
3:20 PM9 °C8 °C93 %998 hPa6.9 kmNNW (340°)9.3 km/hRainRain
3:50 PM9 °C8 °C93 %998 hPa6.9 kmNW (320°)7.4 km/h27.8 km/hRainLight Rain
4:20 PM9 °C8 °C93 %998 hPa6 kmNNW (330°)7.4 km/hRainLight Rain
4:50 PM9 °C9 °C100 %998 hPa6.9 kmVariable5.6 km/hRainLight Rain
5:20 PM10 °C9 °C94 %999 hPa8 kmVariable5.6 km/hRainLight Rain
5:50 PM9 °C8 °C93 %999 hPa6 kmWNW (300°)7.4 km/hRainLight Rain
6:20 PM9 °C9 °C100 %999 hPa5 kmNW (310°)7.4 km/hRainLight Rain
6:50 PM10 °C9 °C94 %999 hPa6 kmVariable5.6 km/hRainLight Rain
7:20 PM10 °C9 °C94 %999 hPa5 kmVariable3.7 km/hRainLight Rain
7:50 PM10 °C9 °C94 %1000 hPa6 kmVariable3.7 km/hRainRain
8:20 PM9 °C9 °C100 %1000 hPaVariable5.6 km/hRainLight Rain
8:50 PM9 °C9 °C100 %1000 hPa5 kmWNW (300°)7.4 km/hRainLight Rain
9:20 PM9 °C9 °C100 %1000 hPa5 kmNW (320°)5.6 km/hDrizzle
9:50 PM9 °C8 °C93 %1000 hPa5 kmNNW (330°)5.6 km/hRainRain
10:20 PM9 °C8 °C93 %1000 hPa5 kmVariable5.6 km/hRainLight Rain
10:50 PM9 °C8 °C93 %1000 hPa3.1 kmVariable5.6 km/hRainRain
11:20 PM9 °C8 °C93 %1000 hPa1.6 kmWSW (250°)3.7 km/hHaze
11:50 PM9 °C8 °C93 %1000 hPa1.4 kmVariable3.7 km/hLight Drizzle
Hourly data recorded from EGKK, located 0 kilometers away from London, England







STORIES FROM OUR PARTNERS